TIANWANG 1A (TW-1A)
1 40928U 15051D   19308.77624725  .00002662  00000-0  65476-4 0  9994
2 40928  97.1333 336.9655 0009176 292.0727 181.0780 15.41465926230597
LAPAN A2
1 40931U 15052B   19308.14990593  .00000506  00000-0 -18695-4 0  9996
2 40931   5.9899 149.2330 0013523 313.9745  46.0045 14.76617760221769
LQSAT
1 40958U 15057A   19308.81166049  .00000007  00000-0  86861-5 0  9991
2 40958  97.8844  14.1442 0018893 151.2021 209.0234 14.73094751219288
CHUBUSAT 2
1 41338U 16012B   19307.55620143  .00000347  00000-0  20328-4 0  9998
2 41338  31.0042 348.5959 0013795  28.6579 331.4812 15.00203326203634
CHUBUSAT 3
1 41339U 16012C   19308.50763708  .00000368  00000-0  21887-4 0  9994
2 41339  31.0116 340.4617 0013438  44.9107 315.2613 15.00375611203772
OUFTI-1
1 41458U 16025C   19308.19121585  .00001385  00000-0  74345-4 0  9993
2 41458  98.1005  42.0836 0164248 251.1313 107.2041 15.06143184193417
E-STAR-2
1 41459U 16025D   19308.70666079  .00001026  00000-0  56728-4 0  9990
2 41459  98.0989  42.2017 0165345 250.8605 107.4653 15.05759763193461
AAUSAT 4
1 41460U 16025E   19308.57054026  .00001689  00000-0  88085-4 0  9996
2 41460  98.0940  43.6656 0155397 242.5628 115.9713 15.07769148193598
NUSAT 1
1 41557U 16033B   19308.80638028  .00001250  00000-0  49123-4 0  9992
2 41557  97.4140  35.4877 0014282 160.0657 200.1143 15.27502162191323
BEESAT 4
1 41619U 16040W   19308.12312267  .00001354  00000-0  59754-4 0  9994
2 41619  97.3520   7.6692 0009657 254.2068 105.8105 15.23429297174931
PRATHAM
1 41783U 16059A   19308.16410307  .00000062  00000-0  21336-4 0  9994
2 41783  98.0510   4.5684 0032460 309.9490  49.8861 14.63018181165791
ALSAT 1N
1 41789U 16059G   19308.71781890  .00000127  00000-0  33150-4 0  9998
2 41789  98.0538   7.4101 0027014 296.8001  63.0435 14.64273449165992
NAYIF 1
1 42017U 17008BX  19307.82420099  .00001495  00000-0  61171-4 0  9993
2 42017  97.3890  13.4094 0007447  52.6836 307.5080 15.25858519150980
MAX VALIER SAT
1 42778U 17036P   19308.37293775  .00000929  00000-0  43301-4 0  9994
2 42778  97.3384   2.8730 0014038  97.2749 263.0084 15.22226979131337
